Вернуться в каталог

STARLINK-1555

АктивенСвязьVLEO
NORAD 46032·PAYLOAD·🇺🇸 United States

Запущен Aug 7, 2020 с Cape Canaveral Space Force Station

Loading…

Ближайшие Пролёты (ближайшие 24 часа)

TLE

СвежийSource: CelesTrak SupGP

Эпоха: Sep 15, 2026, 01:19 UTC

1 46032C 20055F   26258.05534722  .00047591  00000+0  15300-2 0  2582
2 46032  53.1579 326.1648 0001162  86.6056 101.5035 15.31686268    10

Отслеживайте STARLINK-1555 в реальном времени с AllMySat

Download on the App Store